When you browse on this site, cookies collect data to enhance your experience and personalize the content and advertising you see.
Visit our Privacy Policy to learn more. By continuing to use the site, you agree to this use of cookies and data.
  • In Lithuania
  • List of Countries
  • For 7 days
  • Water Temperature
  • Satellite Maps
  • Weather Map
  • Weather Widgets
  • user-avatar
    Login

    Hourly Weather Mojkow

    Today, 19 November, Monday

    Time Temperature Precipitation Wind Pressure Humidity
    00:00 0°C° 0.1 mm 1 mps 745 mmHg 71%
    01:00 0°C° 0 mm 1 mps 744 mmHg 83%
    02:00 -1°C° 0.1 mm 2 mps 744 mmHg 85%
    03:00 -1°C° 0.1 mm 2 mps 744 mmHg 86%
    04:00 -1°C° 0.1 mm 2 mps 744 mmHg 88%
    05:00 -1°C° 0.1 mm 3 mps 744 mmHg 88%
    06:00 -1°C° 0.1 mm 3 mps 744 mmHg 88%
    07:00 -1°C° 0 mm 3 mps 743 mmHg 89%
    08:00 -1°C° 0.1 mm 4 mps 744 mmHg 86%
    09:00 -1°C° 0.1 mm 4 mps 744 mmHg 82%
    10:00 0°C° 0.1 mm 5 mps 744 mmHg 79%
    11:00 0°C° 0 mm 5 mps 744 mmHg 74%
    12:00 0°C° 0 mm 5 mps 744 mmHg 70%
    13:00 +1°C° 0 mm 5 mps 744 mmHg 66%
    14:00 0°C° 0 mm 5 mps 744 mmHg 69%
    15:00 -1°C° 0 mm 5 mps 744 mmHg 71%
    16:00 -1°C° 0 mm 4 mps 744 mmHg 73%
    17:00 -1°C° 0 mm 4 mps 744 mmHg 73%
    18:00 -2°C° 0 mm 5 mps 744 mmHg 73%
    19:00 -2°C° 0 mm 5 mps 744 mmHg 73%
    20:00 -2°C° 0 mm 5 mps 744 mmHg 74%
    21:00 -3°C° 0 mm 4 mps 744 mmHg 75%
    22:00 -3°C° 0 mm 4 mps 745 mmHg 76%
    23:00 -3°C° 0 mm 4 mps 744 mmHg 78%

    Tomorrow, 20 November, Tuesday

    Time Temperature Precipitation Wind Pressure Humidity
    00:00 -3°C° 0 mm 4 mps 744 mmHg 79%
    01:00 -3°C° 0 mm 4 mps 744 mmHg 80%
    02:00 -3°C° 0 mm 4 mps 744 mmHg 80%
    03:00 -3°C° 0 mm 4 mps 744 mmHg 80%
    04:00 -2°C° 0 mm 5 mps 743 mmHg 80%
    05:00 -2°C° 0 mm 4 mps 743 mmHg 80%
    06:00 -2°C° 0 mm 4 mps 743 mmHg 81%
    07:00 -2°C° 0 mm 4 mps 743 mmHg 81%
    08:00 -2°C° 0 mm 5 mps 743 mmHg 79%
    09:00 -1°C° 0 mm 5 mps 742 mmHg 77%
    10:00 -2°C° 0 mm 6 mps 742 mmHg 75%
    11:00 -1°C° 0 mm 6 mps 742 mmHg 74%
    12:00 -1°C° 0 mm 6 mps 741 mmHg 72%
    13:00 +1°C° 0 mm 6 mps 741 mmHg 71%
    14:00 0°C° 0.2 mm 5 mps 741 mmHg 73%
    15:00 0°C° 0.2 mm 5 mps 740 mmHg 75%
    16:00 0°C° 0.2 mm 4 mps 740 mmHg 77%
    17:00 0°C° 0.5 mm 4 mps 740 mmHg 80%
    18:00 0°C° 0.5 mm 4 mps 740 mmHg 82%
    19:00 -1°C° 0.5 mm 4 mps 740 mmHg 85%
    20:00 0°C° 0.1 mm 3 mps 741 mmHg 87%
    21:00 0°C° 0.1 mm 3 mps 741 mmHg 88%
    22:00 0°C° 0.1 mm 3 mps 741 mmHg 90%
    23:00 0°C° 0 mm 3 mps 741 mmHg 91%

    Day after tomorrow, 21 November, Wednesday

    Time Temperature Precipitation Wind Pressure Humidity
    00:00 0°C° 0 mm 3 mps 741 mmHg 91%
    01:00 +1°C° 0 mm 2 mps 742 mmHg 92%
    02:00 +1°C° 0 mm 2 mps 742 mmHg 93%
    03:00 +1°C° 0 mm 2 mps 742 mmHg 93%
    04:00 +1°C° 0 mm 2 mps 742 mmHg 93%
    05:00 +1°C° 0 mm 2 mps 742 mmHg 93%
    06:00 +1°C° 0 mm 2 mps 743 mmHg 93%
    07:00 +1°C° 0 mm 2 mps 743 mmHg 92%
    08:00 +1°C° 0 mm 3 mps 743 mmHg 91%
    09:00 +1°C° 0 mm 3 mps 744 mmHg 90%
    10:00 +1°C° 0 mm 3 mps 744 mmHg 89%
    11:00 +1°C° 0 mm 3 mps 744 mmHg 88%
    12:00 +1°C° 0 mm 3 mps 744 mmHg 87%
    13:00 +2°C° 0 mm 3 mps 745 mmHg 86%
    14:00 +1°C° 0 mm 3 mps 745 mmHg 87%
    15:00 +1°C° 0 mm 3 mps 745 mmHg 87%
    16:00 +1°C° 0 mm 3 mps 745 mmHg 88%
    17:00 +1°C° 0 mm 3 mps 745 mmHg 88%
    18:00 0°C° 0 mm 3 mps 746 mmHg 87%
    19:00 0°C° 0 mm 3 mps 746 mmHg 87%
    20:00 0°C° 0 mm 3 mps 746 mmHg 87%
    21:00 0°C° 0 mm 3 mps 746 mmHg 87%
    22:00 0°C° 0 mm 3 mps 746 mmHg 86%
    23:00 0°C° 0 mm 3 mps 746 mmHg 86%

    22 November, Thursday

    Time Temperature Precipitation Wind Pressure Humidity
    00:00 -1°C° 0 mm 3 mps 746 mmHg 86%
    01:00 -1°C° 0 mm 3 mps 746 mmHg 86%
    02:00 -1°C° 0 mm 3 mps 746 mmHg 87%
    03:00 -1°C° 0 mm 3 mps 746 mmHg 87%
    04:00 -2°C° 0 mm 3 mps 746 mmHg 87%
    05:00 -2°C° 0 mm 3 mps 746 mmHg 87%
    06:00 -2°C° 0 mm 3 mps 747 mmHg 87%
    07:00 -2°C° 0 mm 3 mps 747 mmHg 87%
    08:00 -1°C° 0 mm 3 mps 747 mmHg 86%
    09:00 -1°C° 0 mm 3 mps 747 mmHg 84%
    10:00 0°C° 0 mm 3 mps 747 mmHg 83%
    11:00 +1°C° 0 mm 3 mps 747 mmHg 82%
    12:00 +2°C° 0 mm 2 mps 747 mmHg 82%
    13:00 +3°C° 0 mm 2 mps 747 mmHg 81%
    14:00 +2°C° 0 mm 2 mps 747 mmHg 83%
    15:00 +2°C° 0 mm 2 mps 747 mmHg 85%
    16:00 +2°C° 0 mm 2 mps 747 mmHg 88%
    17:00 +1°C° 0 mm 2 mps 748 mmHg 88%
    18:00 +1°C° 0 mm 2 mps 748 mmHg 89%
    19:00 -1°C° 0 mm 2 mps 748 mmHg 89%
    20:00 -1°C° 0 mm 2 mps 748 mmHg 89%
    21:00 -1°C° 0 mm 2 mps 748 mmHg 90%
    22:00 +1°C° 0 mm 1 mps 749 mmHg 90%
    23:00 +1°C° 0 mm 1 mps 749 mmHg 90%

    23 November, Friday

    Time Temperature Precipitation Wind Pressure Humidity
    00:00 +1°C° 0 mm 1 mps 749 mmHg 89%
    01:00 +1°C° 0 mm 1 mps 749 mmHg 89%
    02:00 +1°C° 0 mm 1 mps 749 mmHg 89%
    03:00 +1°C° 0 mm 1 mps 749 mmHg 89%
    04:00 +1°C° 0 mm 1 mps 749 mmHg 89%
    05:00 -1°C° 0 mm 2 mps 749 mmHg 90%
    06:00 +1°C° 0 mm 2 mps 749 mmHg 90%
    07:00 +1°C° 0 mm 2 mps 749 mmHg 90%
    08:00 +2°C° 0 mm 2 mps 749 mmHg 88%
    09:00 +3°C° 0 mm 2 mps 749 mmHg 86%
    10:00 +4°C° 0 mm 2 mps 750 mmHg 83%
    11:00 +5°C° 0 mm 2 mps 750 mmHg 82%
    12:00 +6°C° 0 mm 2 mps 749 mmHg 80%
    13:00 +7°C° 0 mm 2 mps 749 mmHg 79%
    14:00 +6°C° 0 mm 2 mps 749 mmHg 83%
    15:00 +5°C° 0 mm 2 mps 749 mmHg 86%
    16:00 +4°C° 0 mm 2 mps 749 mmHg 90%
    17:00 +4°C° 0 mm 2 mps 748 mmHg 91%
    18:00 +4°C° 0 mm 2 mps 748 mmHg 91%
    19:00 +3°C° 0 mm 2 mps 748 mmHg 91%
    20:00 +3°C° 0 mm 2 mps 748 mmHg 91%
    21:00 +2°C° 0 mm 3 mps 748 mmHg 91%
    22:00 +2°C° 0 mm 3 mps 748 mmHg 91%
    23:00 +2°C° 0 mm 3 mps 748 mmHg 91%

    24 November, Saturday

    Time Temperature Precipitation Wind Pressure Humidity
    00:00 +2°C° 0 mm 3 mps 747 mmHg 91%
    01:00 +2°C° 0 mm 3 mps 747 mmHg 91%
    02:00 +2°C° 0 mm 3 mps 747 mmHg 91%
    03:00 +3°C° 0 mm 2 mps 746 mmHg 91%
    04:00 +3°C° 0 mm 2 mps 746 mmHg 91%
    05:00 +3°C° 0 mm 2 mps 746 mmHg 91%
    06:00 +2°C° 0 mm 2 mps 746 mmHg 91%
    07:00 +2°C° 0 mm 2 mps 745 mmHg 91%
    08:00 +3°C° 0 mm 2 mps 745 mmHg 88%
    09:00 +4°C° 0 mm 2 mps 745 mmHg 85%
    10:00 +5°C° 0 mm 2 mps 745 mmHg 82%
    11:00 +6°C° 0 mm 2 mps 745 mmHg 80%
    12:00 +7°C° 0 mm 2 mps 744 mmHg 77%
    13:00 +7°C° 0 mm 2 mps 744 mmHg 74%
    14:00 +7°C° 0 mm 2 mps 744 mmHg 78%
    15:00 +6°C° 0 mm 2 mps 744 mmHg 81%
    16:00 +5°C° 0 mm 2 mps 744 mmHg 84%
    17:00 +5°C° 0 mm 2 mps 744 mmHg 85%
    18:00 +5°C° 0 mm 2 mps 743 mmHg 86%
    19:00 +4°C° 0 mm 2 mps 743 mmHg 87%
    20:00 +4°C° 0 mm 2 mps 743 mmHg 88%
    21:00 +4°C° 0 mm 2 mps 743 mmHg 88%
    22:00 +4°C° 0 mm 2 mps 743 mmHg 89%
    23:00 +3°C° 0 mm 2 mps 743 mmHg 90%
    Show more